Tracking 31027 objects as of 19-Jul-2025
HD Live streaming from Space Station
objects crossing your sky now

FENGYUN 1C DEB

Track FENGYUN 1C DEB now!
10-day predictions


NORAD ID: 30570
Int'l Code: 1999-025ALL
Perigee: 828.3 km
Apogee: 877.7 km
Inclination: 98.7 °
Period: 101.8 minutes
Semi major axis: 7223 km
RCS: 0.044 m2 (small)
Launch date: May 10, 1999
Source: People's Republic of China (PRC)
Launch site: Taiyaun Space Center, China (TSC)

Note: This is SATELLITE DEBRIS
Your satellite tracking list
IRIDIUM 33 DEB
Track 1 satellite(s)




NASA's NSSDC Master Catalog

Two Line Element Set (TLE):
1 30570U 99025ALL 25199.88459737  .00000493  00000-0  28112-3 0  9990
2 30570  98.7307 235.8767 0034137 271.9024 266.5868 14.13957838949217
Source of the keplerian elements: AFSPC